www.pogodaiklimat.ru

Погода и климат >> Архив погоды >> Россия >> Ненецкий АО >> Хорей-Вер


ПОГОДА в Хорей-Вере

  • Прогноз погоды в Хорей-Вере
  • Монитор погоды в Хорей-Вере

АРХИВ ПОГОДЫ в Хорей-Вере

Время (UTC), дата Ветер
(напр.,м/с)
 
Видим.   Явления Облачность Т
(С)
Тd
(С)
f
(%)
Тe
(С)
Тes
(С)
Комфортность P
(гПа)
Po
(гПа)
Тmin
(С)
Tmax
(С)
R
(мм)
R24
(мм)
S
(см)
12 12.02 ЮЗ 5 20 км 10/10 600 м
[Sc]
-5.1 -6.8 88 -12 -12 1008.0 998.9
15 12.02 ЮЗ 8
{12}
4000 м слаб. снег {метель} 10/0
[As op]
-4.7 -6.0 91 -14 -14 1007.5 998.5 -4.6 0.0
18 12.02 ЮЗ 7-10
{12}
2000 м снег {метель} 10/0
[As op]
-4.5 -5.8 91 -13 -13 1007.0 997.9
21 12.02 ЮЗ 7
{13}
2000 м снег {метель} 10/0
[As op]
-3.3 -4.4 92 -11 -11 1006.3 997.3
00 13.02 ЮЗ 8-11
{13}
н/о н/о -3.1 -4.9 87 -11 -11 1004.6 995.6
03 13.02 ЮЗ 7-10
{11}
н/о {снег, метель} н/о -3.7 -5.3 89 -12 -12 1003.1 994.0 -4.7 0.5 28
06 13.02 ЮЗ 7-10
{12}
4000 м слаб. снег {метель} 10/0
[Ac As]
-3.5 -4.9 90 -12 -12 1001.9 992.9
09 13.02 ЮЗ 8-11
{12}
4000 м слаб. снег {метель} 10/0
[As op]
-3.1 -4.7 89 -12 -12 1001.2 992.2
12 13.02 ЮЗ 8-11
{13}
20 км позёмок {снег} 10/0
[Ac As]
-2.7 -4.4 88 -11 -11 1001.2 992.2
15 13.02 ЮЗ 7
{12}
4000 м слаб. снег {метель} 10/0
[Ac As]
-2.8 -4.1 91 -11 -11 1001.1 992.1 -2.5 0.4
18 13.02 ЮЗ 7
{11}
20 км позёмок {снег} 10/10 300 м
[Sc]
-2.8 -4.1 91 -11 -11 1001.2 992.2
21 13.02 ЮЗ 7
{10}
н/о н/о -2.2 -3.6 90 -10 -10 1001.0 992.0
00 14.02 З 5 н/о н/о -2.4 -3.4 93 -9 -9 1000.1 991.2
03 14.02 С 3 10 км слаб. снег 10/0
[As op]
-5.5 -6.9 90 -11 -11 1000.3 991.3 -5.5 0.2 29
06 14.02 СВ 7-11
{13}
20 км позёмок {снег} 10/0
[Ac As]
-9.4 -11.4 85 -18 -18 1001.3 992.1 -9.4
09 14.02 СВ 6
{12}
20 км {метель} 9/0
[As trans Ci sp]
-14.4 -16.9 81 -24 -24 1004.6 995.2
12 14.02 С 4 20 км {метель} 4/0
[Cs]
-18.4 -20.4 84 -27 -27 1007.1 997.6
15 14.02 З 2 20 км 10/0
[Ac As]
-18.1 -20.1 84 -24 -24 1009.3 999.7 -5.5 0.0
18 14.02 ЮЗ 2 10 км слаб. снег 10/0
[As trans]
-15.5 -17.2 87 -21 -21 1009.3 999.8
21 14.02 ЮЗ 3 20 км {снег} 1/0
[Ac trans]
-15.7 -17.5 86 -22 -22 1008.6 999.1
00 15.02 ЮЗ 4 20 км {снег} 10/10 200 м
[St]
-13.1 -14.8 87 -20 -20 1007.8 998.5
03 15.02 ЮЗ 4 20 км 10/10 200 м
[St]
-11.5 -13.1 88 -19 -19 1007.2 997.9 -18.0 0.0 29
06 15.02 ЮЗ 5 4000 м мгла 10/0
[As op]
-11.5 -13.2 87 -19 -19 1006.0 996.7
09 15.02 Ю 4 4000 м мгла {снег} 10/0
[As op]
-11.1 -13.1 85 -18 -18 1004.4 995.1
12 15.02 Ю 4 4000 м мгла {снег} 10/4 300 м
[Sc As op]
-12.3 -14.4 84 -19 -19 1002.6 993.4
15 15.02 Ю 5 20 км {снег} 3/0
[Ci fib]
-15.6 -17.4 86 -25 -25 1000.4 991.0 -10.3 0.0
18 15.02 Ю 6
{12}
10 км ледяные иглы {снег, метель} 6/0
[Ci sp]
-14.9 -17.0 84 -24 -24 999.1 989.7
21 15.02 Ю 4
{11}
10 км слаб. снег {метель} 9/0
[Ac As]
-12.3 -14.4 84 -19 -19 998.0 988.7
00 16.02 ЮЗ 7-10
{11}
4000 м слаб. снег {метель} 10/6 300 м
[Sc As op]
-9.4 -11.4 85 -18 -18 996.2 987.1
03 16.02 Ю 6-11
{11}
20 км позёмок {снег} 9/0
[Ac As]
-9.6 -11.7 85 -18 -18 995.4 986.2 -15.8 0.2 28
06 16.02 ЮЗ 9-13
{15}
4000 м метель {снег} 9/0
[Ac As]
-9.3 -11.4 85 -19 -19 994.4 985.3
09 16.02 ЮЗ 7-11
{14}
4000 м слаб. снег {метель} 10/0
[As op]
-8.9 -10.9 85 -18 -18 993.9 984.8
12 16.02 ЮЗ 7
{13}
1000 м снег {метель} 10/0
[As op]
-9.0 -10.7 87 -18 -18 993.6 984.5
15 16.02 ЮЗ 7
{12}
20 км позёмок {снег} 10/10 300 м
[Sc]
-8.7 -10.4 87 -18 -18 993.0 983.9 -8.7 0.2
18 16.02 З 8
{11}
10 км слаб. ливневой снег {метель} 10/10 300 м
[Cb cap]
-7.9 -9.3 90 -17 -17 992.4 983.4
21 16.02 З 5 н/о н/о -7.3 -8.5 91 -15 -15 992.0 983.0
00 17.02 штиль 0 500 м переохл. туман н/о -8.0 -9.1 92 -9 -9 991.1 982.0
03 17.02 ЮЗ 3 20 км {туман} 10/10 300 м
[Sc]
-8.6 -9.7 92 -15 -15 989.9 980.8 -8.7 0.0 28
06 17.02 Ю 5 20 км в посл. час ливневой снег {туман} 10/10 300 м
[Cb cap]
-9.7 -11.1 89 -18 -18 988.2 979.1 -10.2
09 17.02 Ю 5 20 км в посл. час ливневой снег 10/10 300 м
[Sc]
-9.4 -11.3 86 -17 -17 987.6 978.5
12 17.02 ЮВ 2 20 км {ливн. осадки} 10/10 300 м
[Sc]
-9.2 -10.9 87 -14 -14 987.2 978.1
15 17.02 ЮВ 3 20 км 10/10 600 м
[Sc]
-9.4 -11.3 86 -15 -15 987.0 977.9 -8.6 0.0
18 17.02 ЮВ 4 20 км 10/10 600 м
[Sc]
-9.4 -11.9 82 -16 -16 986.5 977.5
21 17.02 В 3 20 км 10/0
[Cs]
-10.4 -12.5 85 -16 -16 986.8 977.7
00 18.02 В 3 4000 м слаб. снег 10/0
[As op]
-10.2 -11.7 89 -16 -16 987.7 978.6
03 18.02 С 3 4000 м слаб. снег 10/0
[As op]
-10.5 -12.2 87 -16 -16 988.9 979.8 -10.8 0.7 29
06 18.02 С 8-12
{12}
10 км слаб. снег {метель} 10/0
[As op]
-13.7 -16.3 81 -24 -24 992.6 983.3 -13.7
09 18.02 С 6
{12}
4000 м слаб. снег {метель} 10/0
[As op]
-15.0 -17.6 80 -25 -24 996.4 987.1
12 18.02 С 4
{11}
20 км {снег, метель} 3/0
[Ci fib]
-20.4 -22.9 80 -29 -29 1000.5 990.9
15 18.02 ЮЗ 2 20 км 3/0
[Ci fib]
-26.2 -29.0 77 -33 -33 опасность
обморожения
1004.1 994.2 -10.5 0.0
18 18.02 ЮЗ 3 20 км 9/0
[Ac trans]
-22.6 -25.0 81 -31 -31 опасность
обморожения
1004.8 995.1
21 18.02 З 5 20 км 9/8 300 м
[Sc As op]
-18.7 -21.0 82 -28 -28 1004.4 994.8
00 19.02 З 4 н/о н/о -21.6 -24.0 81 -31 -31 опасность
обморожения
1004.1 994.5
03 19.02 ЮЗ 3 2000 м дымка 6/0
[As op]
-21.9 -24.3 81 -30 -30 1003.1 993.5 -27.1 28
06 19.02 ЮЗ 7
{11}
500 м переохл. туман 8/5 300 м
[St Ac trans]
-19.1 -21.4 82 -31 -31 опасность
обморожения
1001.6 992.0

 

Местоположение метеостанции Хорей-Вер (Ненецкий АО, Россия): широта 67.43 долгота 58.02 высота над уровнем моря 72 м.

В архиве по умолчанию представлена погода в Хорей-Вере за последнюю неделю. Архивные данные за месяц целиком и за предыдущие месяцы, начиная с января 2011 года, Вы можете получить, выбрав интересующий диапазон дат из раскрывающегося списка и нажав кнопку "Ввод!".


*Определитесь, кто Вы:
робот инопланетянин человек

Внимание! Время в таблицах - всемирное. Для получения местного времени необходимо прибавить поправку, которая равна 3 ч.

Смотрите также архив погоды в соседних городах и на ближайших метеорологических станциях:

Погода в Варандее (Ненецкий АО, Россия) (155 км)
Погода в Усинске (Коми, Россия) (158 км)
Погода на Мысе Константиновском (Ненецкий АО, Россия) (163 км)
Погода в Петруни (Коми, Россия) (163 км)
Погода в Усть-Усе (Коми, Россия) (169 км)
Погода в Мутном Материке (Коми, Россия) (207 км)
Погода в Нарьян-Маре (Ненецкий АО, Россия) (214 км)
Погода в Ходоварихе (Ненецкий АО, Россия) (243 км)
Погода в Воркуте (Коми, Россия) (254 км)
Погода на Мысе Белый Нос (Ненецкий АО, Россия) (257 км)

Пояснения к столбцам:

Ветер - указаны скорость ветра в м/с - средняя за 10 мин, порывы в срок и между сроками (в фигурных скобках) и направление, откуда дует ветер: С - северный, СВ - северо-восточный, В - восточный, ЮВ - юго-восточный, Ю - южный, ЮЗ - юго-западный, З - западный, СЗ - северо-западный.
Видимость - горизонтальная дальность видимости в метрах или километрах. При видимости от 1 до 10 км при отсутствии осадков обычно наблюдается дымка, при ухудшении видимости до 1 км и менее - туман. В сухую погоду видимость может ухудшаться дымом, пылью или мглою.
Явления - указаны атмосферные явления, наблюдавшиеся в срок или в последний час перед сроком; фигурными скобками обозначены явления, наблюдавшиеся между сроками (за 1-3 часа до срока); квадратными скобками обозначены град или гололедные отложения с указанием их диаметра в мм.
Облачность - указаны через наклонную черту общая и нижняя облачность в баллах и высота нижней границы облаков в метрах; квадратными скобками обозначены формы облаков: Ci - перистые, Cs - перисто-слоистые, Cc - перисто-кучевые, Ac - высококучевые, As - высокослоистые, Sc - слоисто-кучевые, Ns - слоисто-дождевые, Cu - кучевые, Cb - кучево-дождевые. Подробнее классификацию облаков см. в Атласе облаков (PDF).
T - Температура воздуха - температура, измеренная на высоте 2 м над землей.
Td - Температура точки росы - температура, при понижении до которой содержащийся в воздухе водяной пар достигнет насыщения.
f - Относительная влажность воздуха - влажноcть воздуха, измеренная на высоте 2 м над землей.
Te - Эффективная температура - температура, которую ощущает одетый по сезону человек в тени. Характеристика душности погоды. При расчете учитывается влияние влажности воздуха и скорости ветра на теплоощущения человека.
Tes - Эффективная температура на солнце - температура, которую ощущает человек, с поправкой на солнечный нагрев. Характеристика знойности погоды. Зависит от высоты солнца над горизонтом, облачности и скорости ветра. Ночью, в пасмурную погоду, а также при ветре 12 м/с и более поправка равна нулю.
P - Атмосферное давление - приведенное к уровню моря атмосферное давление.
Po - Атмосферное давление - измеренное на уровне метеостанции атмосферное давление.
Tmin - Минимальная температура - минимум температуры воздуха на высоте 2 м над землей.
Tmax - Максимальная температура - максимум температуры воздуха на высоте 2 м над землей.
R - Количество осадков - Количество выпавших осадков за период времени, мм. При наведении курсора мыши на число - период времени, за который выпало указанное количество осадков.
R24 - Количество осадков - Количество выпавших осадков за 24 часа, мм.
S - Снежный покров - Высота снежного покрова, см. При наведении курсора мыши на число - состояние снежного покрова и степень покрытия местности в баллах.